Wetterdaten: Woche 15.12.14 - 21.12.14 (KW51)
Datum Zeit Temp. A. Feuchte A. Luftdruck Regen Wind Richtung Sonnenschein ET UV Solar Taupunkt Windchill Windben Empfang
15.12.2014 00:00 1,0 C 81 % 1019,0 hPa 0,0 l/m 0,0 km/h (0 Bft) N 0,00 h 0,000 mm 0,0 UV-I 0 W/m -1,9 C 1,0 C 0,0 km/h (0 Bft) 0,00 %
15.12.2014 01:00 0,4 C 81 % 1019,1 hPa 0,0 l/m 0,0 km/h (0 Bft) N 0,00 h 0,000 mm 0,0 UV-I 0 W/m -2,5 C 0,4 C 0,0 km/h (0 Bft) 0,00 %
15.12.2014 02:00 0,0 C 83 % 1018,5 hPa 0,0 l/m 0,0 km/h (0 Bft) N 0,00 h 0,000 mm 0,0 UV-I 0 W/m -2,5 C 0,0 C 0,0 km/h (0 Bft) 0,00 %
15.12.2014 03:00 0,1 C 83 % 1019,1 hPa 0,0 l/m 0,0 km/h (0 Bft) N 0,00 h 0,000 mm 0,0 UV-I 0 W/m -2,4 C 0,1 C 0,0 km/h (0 Bft) 0,00 %
15.12.2014 04:00 0,5 C 82 % 1018,0 hPa 0,0 l/m 0,0 km/h (0 Bft) N 0,00 h 0,000 mm 0,0 UV-I 0 W/m -2,2 C 0,5 C 0,0 km/h (0 Bft) 0,00 %
15.12.2014 05:00 0,8 C 83 % 1018,0 hPa 0,0 l/m 0,0 km/h (0 Bft) N 0,00 h 0,000 mm 0,0 UV-I 0 W/m -1,8 C 0,8 C 0,0 km/h (0 Bft) 0,00 %
15.12.2014 06:00 0,3 C 83 % 1018,5 hPa 0,0 l/m 0,0 km/h (0 Bft) N 0,00 h 0,000 mm 0,0 UV-I 0 W/m -2,2 C 0,3 C 0,0 km/h (0 Bft) 0,00 %
15.12.2014 07:00 0,3 C 83 % 1018,5 hPa 0,0 l/m 0,0 km/h (0 Bft) N 0,00 h 0,000 mm 0,0 UV-I 0 W/m -2,2 C 0,3 C 0,0 km/h (0 Bft) 0,00 %
15.12.2014 08:00 -0,2 C 83 % 1019,2 hPa 0,0 l/m 0,0 km/h (0 Bft) N 0,00 h 0,000 mm 0,0 UV-I 0 W/m -2,7 C -0,2 C 0,0 km/h (0 Bft) 0,00 %
15.12.2014 09:00 0,8 C 83 % 1019,4 hPa 0,0 l/m 0,0 km/h (0 Bft) N 0,00 h 0,000 mm 0,0 UV-I 0 W/m -1,8 C 0,8 C 0,0 km/h (0 Bft) 0,00 %
15.12.2014 10:00 1,3 C 82 % 1019,3 hPa 0,0 l/m 0,0 km/h (0 Bft) N 0,00 h 0,000 mm 0,0 UV-I 0 W/m -1,4 C 1,3 C 0,0 km/h (0 Bft) 0,00 %
15.12.2014 11:00 2,4 C 82 % 1019,2 hPa 0,0 l/m 0,0 km/h (0 Bft) S-SO 0,00 h 0,000 mm 0,0 UV-I 0 W/m -0,4 C 2,4 C 0,0 km/h (0 Bft) 0,00 %
15.12.2014 12:00 3,2 C 82 % 1018,3 hPa 0,0 l/m 1,4 km/h (1 Bft) N 0,00 h 0,000 mm 0,0 UV-I 0 W/m 0,4 C 3,2 C 4,0 km/h (1 Bft) 0,00 %
15.12.2014 13:00 4,1 C 79 % 1017,8 hPa 0,0 l/m 0,0 km/h (0 Bft) N 0,00 h 0,000 mm 0,0 UV-I 0 W/m 0,8 C 4,1 C 0,0 km/h (0 Bft) 0,00 %
15.12.2014 14:00 4,8 C 77 % 1017,6 hPa 0,0 l/m 0,0 km/h (0 Bft) N 0,00 h 0,000 mm 1,0 UV-I 69 W/m 1,0 C 4,8 C 0,0 km/h (0 Bft) 0,00 %
15.12.2014 15:00 4,5 C 78 % 1017,9 hPa 0,0 l/m 0,0 km/h (0 Bft) N 0,00 h 0,000 mm 0,0 UV-I 0 W/m 1,0 C 4,5 C 0,0 km/h (0 Bft) 0,00 %
15.12.2014 16:00 3,8 C 81 % 1018,4 hPa 0,0 l/m 0,0 km/h (0 Bft) N 0,00 h 0,000 mm 0,0 UV-I 0 W/m 0,8 C 3,8 C 0,0 km/h (0 Bft) 0,00 %
15.12.2014 17:00 3,1 C 84 % 1018,5 hPa 0,0 l/m 0,0 km/h (0 Bft) N 0,00 h 0,000 mm 0,0 UV-I 0 W/m 0,7 C 3,1 C 0,0 km/h (0 Bft) 0,00 %
15.12.2014 18:00 3,1 C 84 % 1018,1 hPa 0,0 l/m 0,0 km/h (0 Bft) N 0,00 h 0,000 mm 0,0 UV-I 0 W/m 0,7 C 3,1 C 0,0 km/h (0 Bft) 0,00 %
15.12.2014 19:00 2,5 C 84 % 1018,2 hPa 0,0 l/m 0,0 km/h (0 Bft) N 0,00 h 0,000 mm 0,0 UV-I 0 W/m 0,1 C 2,5 C 0,0 km/h (0 Bft) 0,00 %
15.12.2014 20:00 2,5 C 85 % 1018,2 hPa 0,0 l/m 0,0 km/h (0 Bft) N 0,00 h 0,000 mm 0,0 UV-I 0 W/m 0,2 C 2,5 C 0,0 km/h (0 Bft) 0,00 %
15.12.2014 21:00 2,5 C 85 % 1017,9 hPa 0,0 l/m 0,0 km/h (0 Bft) N 0,00 h 0,000 mm 0,0 UV-I 0 W/m 0,2 C 2,5 C 0,0 km/h (0 Bft) 0,00 %
15.12.2014 22:00 2,6 C 85 % 1017,1 hPa 0,0 l/m 0,0 km/h (0 Bft) N 0,00 h 0,000 mm 0,0 UV-I 0 W/m 0,3 C 2,6 C 0,0 km/h (0 Bft) 0,00 %
15.12.2014 23:00 2,5 C 85 % 1017,9 hPa 0,0 l/m 0,0 km/h (0 Bft) N 0,00 h 0,000 mm 0,0 UV-I 0 W/m 0,2 C 2,5 C 0,0 km/h (0 Bft) 0,00 %
16.12.2014 00:00 2,4 C 81 % 1013,5 hPa 0,0 l/m 0,0 km/h (0 Bft) N 0,00 h 0,000 mm 0,0 UV-I 0 W/m -0,5 C 2,4 C 0,0 km/h (0 Bft) 0,00 %
16.12.2014 01:00 2,1 C 81 % 1012,8 hPa 0,0 l/m 0,0 km/h (0 Bft) N 0,00 h 0,000 mm 0,0 UV-I 0 W/m -0,8 C 2,1 C 0,0 km/h (0 Bft) 0,00 %
16.12.2014 02:00 1,8 C 82 % 1012,6 hPa 0,0 l/m 0,0 km/h (0 Bft) N 0,00 h 0,000 mm 0,0 UV-I 0 W/m -0,9 C 1,8 C 0,0 km/h (0 Bft) 0,00 %
16.12.2014 03:00 1,6 C 82 % 1011,9 hPa 0,0 l/m 0,0 km/h (0 Bft) N 0,00 h 0,000 mm 0,0 UV-I 0 W/m -1,1 C 1,6 C 0,0 km/h (0 Bft) 0,00 %
16.12.2014 04:00 1,5 C 82 % 1011,5 hPa 0,0 l/m 0,0 km/h (0 Bft) N 0,00 h 0,000 mm 0,0 UV-I 0 W/m -1,2 C 1,5 C 0,0 km/h (0 Bft) 0,00 %
16.12.2014 05:00 1,3 C 83 % 1011,2 hPa 0,0 l/m 0,0 km/h (0 Bft) N 0,00 h 0,000 mm 0,0 UV-I 0 W/m -1,3 C 1,3 C 0,0 km/h (0 Bft) 0,00 %
16.12.2014 06:00 0,5 C 83 % 1010,7 hPa 0,0 l/m 0,0 km/h (0 Bft) N 0,00 h 0,000 mm 0,0 UV-I 0 W/m -2,0 C 0,5 C 0,0 km/h (0 Bft) 0,00 %
16.12.2014 07:00 0,8 C 84 % 1010,6 hPa 0,0 l/m 0,0 km/h (0 Bft) N 0,00 h 0,000 mm 0,0 UV-I 0 W/m -1,6 C 0,8 C 0,0 km/h (0 Bft) 0,00 %
16.12.2014 08:00 0,8 C 83 % 1010,6 hPa 0,0 l/m 0,0 km/h (0 Bft) N 0,00 h 0,000 mm 0,0 UV-I 0 W/m -1,8 C 0,8 C 0,0 km/h (0 Bft) 0,00 %
16.12.2014 09:00 1,0 C 83 % 1011,0 hPa 0,0 l/m 0,0 km/h (0 Bft) N 0,00 h 0,000 mm 0,0 UV-I 0 W/m -1,6 C 1,0 C 0,0 km/h (0 Bft) 0,00 %
16.12.2014 10:00 2,4 C 87 % 1010,8 hPa 0,0 l/m 0,0 km/h (0 Bft) N 0,00 h 0,000 mm 0,0 UV-I 0 W/m 0,5 C 2,4 C 0,0 km/h (0 Bft) 0,00 %
16.12.2014 11:00 3,0 C 87 % 1010,3 hPa 0,0 l/m 0,0 km/h (0 Bft) N 0,00 h 0,000 mm 0,0 UV-I 0 W/m 1,1 C 3,0 C 0,0 km/h (0 Bft) 0,00 %
16.12.2014 12:00 3,5 C 84 % 1010,2 hPa 0,0 l/m 0,0 km/h (0 Bft) N 0,00 h 0,000 mm 0,0 UV-I 0 W/m 1,1 C 3,5 C 0,0 km/h (0 Bft) 0,00 %
16.12.2014 13:00 4,0 C 84 % 1009,5 hPa 0,0 l/m 0,0 km/h (0 Bft) N 0,00 h 0,000 mm 0,0 UV-I 0 W/m 1,5 C 4,0 C 0,0 km/h (0 Bft) 0,00 %
16.12.2014 14:00 4,4 C 82 % 1009,0 hPa 0,0 l/m 0,0 km/h (0 Bft) N 0,00 h 0,000 mm 0,0 UV-I 0 W/m 1,6 C 4,4 C 0,0 km/h (0 Bft) 0,00 %
16.12.2014 15:00 4,4 C 83 % 1008,3 hPa 0,0 l/m 0,0 km/h (0 Bft) N 0,00 h 0,000 mm 0,0 UV-I 0 W/m 1,8 C 4,4 C 0,0 km/h (0 Bft) 0,00 %
16.12.2014 16:00 3,7 C 85 % 1008,4 hPa 0,0 l/m 0,0 km/h (0 Bft) N 0,00 h 0,000 mm 0,0 UV-I 0 W/m 1,4 C 3,7 C 0,0 km/h (0 Bft) 0,00 %
16.12.2014 17:00 3,6 C 85 % 1008,8 hPa 0,0 l/m 0,0 km/h (0 Bft) N 0,00 h 0,000 mm 0,0 UV-I 0 W/m 1,3 C 3,6 C 0,0 km/h (0 Bft) 0,00 %
16.12.2014 18:00 3,5 C 86 % 1008,8 hPa 0,3 l/m 0,0 km/h (0 Bft) N 0,00 h 0,000 mm 0,0 UV-I 0 W/m 1,4 C 3,5 C 0,0 km/h (0 Bft) 0,00 %
16.12.2014 19:00 3,6 C 86 % 1009,1 hPa 0,6 l/m 0,0 km/h (0 Bft) N 0,00 h 0,000 mm 0,0 UV-I 0 W/m 1,5 C 3,6 C 0,0 km/h (0 Bft) 0,00 %
16.12.2014 20:00 3,9 C 87 % 1009,1 hPa 0,6 l/m 0,0 km/h (0 Bft) N 0,00 h 0,000 mm 0,0 UV-I 0 W/m 1,9 C 3,9 C 0,0 km/h (0 Bft) 0,00 %
16.12.2014 21:00 4,4 C 86 % 1009,0 hPa 0,9 l/m 0,0 km/h (0 Bft) N 0,00 h 0,000 mm 0,0 UV-I 0 W/m 2,3 C 4,4 C 0,0 km/h (0 Bft) 0,00 %
16.12.2014 22:00 4,7 C 87 % 1009,3 hPa 0,9 l/m 0,3 km/h (0 Bft) N 0,00 h 0,000 mm 0,0 UV-I 0 W/m 2,7 C 4,7 C 4,0 km/h (1 Bft) 0,00 %
16.12.2014 23:00 4,5 C 87 % 1010,0 hPa 1,5 l/m 0,3 km/h (0 Bft) N 0,00 h 0,000 mm 0,0 UV-I 0 W/m 2,5 C 4,5 C 4,0 km/h (1 Bft) 0,00 %
17.12.2014 00:00 4,0 C 85 % 1013,2 hPa 0,0 l/m 0,0 km/h (0 Bft) N 0,00 h 0,000 mm 0,0 UV-I 0 W/m 1,7 C 4,0 C 0,0 km/h (0 Bft) 0,00 %
17.12.2014 01:00 3,9 C 85 % 1013,6 hPa 0,0 l/m 0,0 km/h (0 Bft) N 0,00 h 0,000 mm 0,0 UV-I 0 W/m 1,6 C 3,9 C 0,0 km/h (0 Bft) 0,00 %
17.12.2014 02:00 4,1 C 85 % 1013,5 hPa 0,0 l/m 0,6 km/h (0 Bft) N 0,00 h 0,000 mm 0,0 UV-I 0 W/m 1,8 C 4,1 C 4,0 km/h (1 Bft) 0,00 %
17.12.2014 03:00 4,0 C 84 % 1013,6 hPa 0,0 l/m 0,6 km/h (0 Bft) N 0,00 h 0,000 mm 0,0 UV-I 0 W/m 1,5 C 4,0 C 4,0 km/h (1 Bft) 0,00 %
17.12.2014 04:00 4,1 C 83 % 1013,5 hPa 0,0 l/m 0,6 km/h (0 Bft) W-SW 0,00 h 0,000 mm 0,0 UV-I 0 W/m 1,5 C 4,1 C 4,0 km/h (1 Bft) 0,00 %
17.12.2014 05:00 4,2 C 84 % 1013,8 hPa 0,3 l/m 4,7 km/h (1 Bft) N 0,00 h 0,000 mm 0,0 UV-I 0 W/m 1,7 C 4,2 C 7,9 km/h (2 Bft) 0,00 %
17.12.2014 06:00 3,3 C 86 % 1014,0 hPa 0,3 l/m 0,0 km/h (0 Bft) N 0,00 h 0,000 mm 0,0 UV-I 0 W/m 1,2 C 3,3 C 0,0 km/h (0 Bft) 0,00 %
17.12.2014 07:00 3,3 C 85 % 1014,7 hPa 0,0 l/m 0,6 km/h (0 Bft) N 0,00 h 0,000 mm 0,0 UV-I 0 W/m 1,0 C 3,3 C 4,0 km/h (1 Bft) 0,00 %
17.12.2014 08:00 3,2 C 85 % 1014,7 hPa 0,0 l/m 0,0 km/h (0 Bft) N 0,00 h 0,000 mm 0,0 UV-I 0 W/m 0,9 C 3,2 C 0,0 km/h (0 Bft) 0,00 %
17.12.2014 09:00 3,2 C 83 % 1015,2 hPa 0,0 l/m 0,0 km/h (0 Bft) W-SW 0,00 h 0,000 mm 0,0 UV-I 0 W/m 0,6 C 3,2 C 0,0 km/h (0 Bft) 0,00 %
17.12.2014 10:00 4,4 C 75 % 1015,0 hPa 0,0 l/m 1,4 km/h (1 Bft) N 1,00 h 0,000 mm 0,0 UV-I 0 W/m 0,4 C 4,4 C 4,0 km/h (1 Bft) 0,00 %
17.12.2014 11:00 4,6 C 74 % 1014,2 hPa 0,0 l/m 0,0 km/h (0 Bft) N 1,00 h 0,000 mm 0,0 UV-I 0 W/m 0,4 C 4,6 C 0,0 km/h (0 Bft) 0,00 %
17.12.2014 12:00 5,2 C 71 % 1013,0 hPa 0,0 l/m 0,0 km/h (0 Bft) N 1,00 h 0,000 mm 0,0 UV-I 0 W/m 0,4 C 5,2 C 0,0 km/h (0 Bft) 0,00 %
17.12.2014 13:00 5,4 C 66 % 1012,0 hPa 0,0 l/m 0,0 km/h (0 Bft) N 1,00 h 0,000 mm 0,0 UV-I 0 W/m -0,4 C 5,4 C 0,0 km/h (0 Bft) 0,00 %
17.12.2014 14:00 5,7 C 67 % 1011,2 hPa 0,0 l/m 0,0 km/h (0 Bft) N 1,00 h 0,000 mm 0,0 UV-I 0 W/m 0,1 C 5,7 C 0,0 km/h (0 Bft) 0,00 %
17.12.2014 15:00 4,8 C 72 % 1010,3 hPa 0,0 l/m 0,0 km/h (0 Bft) N 1,00 h 0,000 mm 0,0 UV-I 0 W/m 0,2 C 4,8 C 0,0 km/h (0 Bft) 0,00 %
17.12.2014 16:00 3,9 C 77 % 1009,7 hPa 0,0 l/m 0,0 km/h (0 Bft) N 0,00 h 0,000 mm 0,0 UV-I 0 W/m 0,2 C 3,9 C 0,0 km/h (0 Bft) 0,00 %
17.12.2014 17:00 3,3 C 82 % 1009,8 hPa 0,0 l/m 0,0 km/h (0 Bft) N 0,00 h 0,000 mm 0,0 UV-I 0 W/m 0,5 C 3,3 C 0,0 km/h (0 Bft) 0,00 %
17.12.2014 18:00 3,0 C 84 % 1010,2 hPa 0,0 l/m 0,0 km/h (0 Bft) N 0,00 h 0,000 mm 0,0 UV-I 0 W/m 0,6 C 3,0 C 0,0 km/h (0 Bft) 0,00 %
17.12.2014 19:00 3,1 C 84 % 1010,6 hPa 0,0 l/m 0,0 km/h (0 Bft) N 0,00 h 0,000 mm 0,0 UV-I 0 W/m 0,7 C 3,1 C 0,0 km/h (0 Bft) 0,00 %
17.12.2014 20:00 3,1 C 85 % 1011,2 hPa 0,6 l/m 0,0 km/h (0 Bft) N 0,00 h 0,000 mm 0,0 UV-I 0 W/m 0,8 C 3,1 C 0,0 km/h (0 Bft) 0,00 %
17.12.2014 21:00 3,2 C 86 % 1011,2 hPa 0,6 l/m 0,0 km/h (0 Bft) N 0,00 h 0,000 mm 0,0 UV-I 0 W/m 1,1 C 3,2 C 0,0 km/h (0 Bft) 0,00 %
17.12.2014 22:00 4,0 C 83 % 1011,5 hPa 0,0 l/m 0,0 km/h (0 Bft) W 0,00 h 0,000 mm 0,0 UV-I 0 W/m 1,4 C 4,0 C 0,0 km/h (0 Bft) 0,00 %
17.12.2014 23:00 4,7 C 80 % 1011,7 hPa 0,0 l/m 3,2 km/h (1 Bft) W-SW 0,00 h 0,000 mm 0,0 UV-I 0 W/m 1,6 C 4,7 C 4,0 km/h (1 Bft) 0,00 %
18.12.2014 00:00 4,9 C 84 % 1013,1 hPa 0,0 l/m 4,3 km/h (1 Bft) W-SW 0,00 h 0,000 mm 0,0 UV-I 0 W/m 2,4 C 4,9 C 7,9 km/h (2 Bft) 0,00 %
18.12.2014 01:00 4,9 C 85 % 1013,8 hPa 0,3 l/m 0,0 km/h (0 Bft) SW 0,00 h 0,000 mm 0,0 UV-I 0 W/m 2,6 C 4,9 C 0,0 km/h (0 Bft) 0,00 %
18.12.2014 02:00 5,0 C 86 % 1014,5 hPa 1,2 l/m 1,4 km/h (1 Bft) W 0,00 h 0,000 mm 0,0 UV-I 0 W/m 2,9 C 5,0 C 4,0 km/h (1 Bft) 0,00 %
18.12.2014 03:00 5,3 C 86 % 1014,8 hPa 0,3 l/m 2,9 km/h (1 Bft) W-SW 0,00 h 0,000 mm 0,0 UV-I 0 W/m 3,2 C 5,3 C 7,9 km/h (2 Bft) 0,00 %
18.12.2014 04:00 5,6 C 84 % 1015,2 hPa 0,0 l/m 4,0 km/h (1 Bft) N 0,00 h 0,000 mm 0,0 UV-I 0 W/m 3,1 C 5,6 C 7,9 km/h (2 Bft) 0,00 %
18.12.2014 05:00 5,8 C 83 % 1015,1 hPa 0,3 l/m 0,3 km/h (0 Bft) W-SW 0,00 h 0,000 mm 0,0 UV-I 0 W/m 3,1 C 5,8 C 4,0 km/h (1 Bft) 0,00 %
18.12.2014 06:00 6,0 C 84 % 1016,2 hPa 0,6 l/m 9,3 km/h (2 Bft) N 0,00 h 0,000 mm 0,0 UV-I 0 W/m 3,5 C 3,7 C 11,9 km/h (2 Bft) 0,00 %
18.12.2014 07:00 6,1 C 84 % 1016,6 hPa 0,0 l/m 0,6 km/h (0 Bft) N 0,00 h 0,000 mm 0,0 UV-I 0 W/m 3,6 C 6,1 C 4,0 km/h (1 Bft) 0,00 %
18.12.2014 08:00 6,3 C 84 % 1017,3 hPa 0,0 l/m 0,0 km/h (0 Bft) N 0,00 h 0,000 mm 0,0 UV-I 0 W/m 3,8 C 6,3 C 0,0 km/h (0 Bft) 0,00 %
18.12.2014 09:00 6,5 C 82 % 1017,8 hPa 0,0 l/m 0,0 km/h (0 Bft) N 0,00 h 0,000 mm 0,0 UV-I 0 W/m 3,7 C 6,5 C 0,0 km/h (0 Bft) 0,00 %
18.12.2014 10:00 7,5 C 79 % 1018,1 hPa 0,0 l/m 0,0 km/h (0 Bft) N-NW 0,00 h 0,000 mm 0,0 UV-I 0 W/m 4,1 C 7,5 C 0,0 km/h (0 Bft) 0,00 %
18.12.2014 11:00 8,3 C 75 % 1017,6 hPa 0,0 l/m 3,2 km/h (1 Bft) W-SW 0,00 h 0,000 mm 0,0 UV-I 0 W/m 4,1 C 8,3 C 7,9 km/h (2 Bft) 0,00 %
18.12.2014 12:00 9,0 C 73 % 1017,1 hPa 0,0 l/m 4,7 km/h (1 Bft) N 0,00 h 0,000 mm 0,0 UV-I 0 W/m 4,4 C 9,0 C 7,9 km/h (2 Bft) 0,00 %
18.12.2014 13:00 9,8 C 71 % 1016,7 hPa 0,0 l/m 0,0 km/h (0 Bft) N 0,00 h 0,000 mm 0,0 UV-I 0 W/m 4,8 C 9,8 C 0,0 km/h (0 Bft) 0,00 %
18.12.2014 14:00 9,8 C 72 % 1016,7 hPa 0,0 l/m 0,0 km/h (0 Bft) N 0,00 h 0,000 mm 0,0 UV-I 0 W/m 5,0 C 9,8 C 0,0 km/h (0 Bft) 0,00 %
18.12.2014 15:00 9,9 C 74 % 1016,3 hPa 0,0 l/m 0,3 km/h (0 Bft) S 0,00 h 0,000 mm 0,0 UV-I 0 W/m 5,5 C 9,9 C 4,0 km/h (1 Bft) 0,00 %
18.12.2014 16:00 8,8 C 82 % 1016,8 hPa 0,3 l/m 6,4 km/h (2 Bft) N 0,00 h 0,000 mm 0,0 UV-I 0 W/m 5,9 C 8,8 C 7,9 km/h (2 Bft) 0,00 %
18.12.2014 17:00 8,6 C 82 % 1016,9 hPa 0,0 l/m 0,6 km/h (0 Bft) W 0,00 h 0,000 mm 0,0 UV-I 0 W/m 5,7 C 8,6 C 4,0 km/h (1 Bft) 0,00 %
18.12.2014 18:00 8,6 C 83 % 1016,9 hPa 0,0 l/m 4,0 km/h (1 Bft) O-SO 0,00 h 0,000 mm 0,0 UV-I 0 W/m 5,9 C 8,6 C 7,9 km/h (2 Bft) 0,00 %
18.12.2014 19:00 8,8 C 83 % 1017,2 hPa 0,3 l/m 4,3 km/h (1 Bft) SO 0,00 h 0,000 mm 0,0 UV-I 0 W/m 6,1 C 8,8 C 7,9 km/h (2 Bft) 0,00 %
18.12.2014 20:00 9,2 C 83 % 1017,1 hPa 0,0 l/m 4,0 km/h (1 Bft) N 0,00 h 0,000 mm 0,0 UV-I 0 W/m 6,5 C 9,2 C 7,9 km/h (2 Bft) 0,00 %
18.12.2014 21:00 9,4 C 81 % 1017,1 hPa 0,0 l/m 0,0 km/h (0 Bft) N 0,00 h 0,000 mm 0,0 UV-I 0 W/m 6,3 C 9,4 C 0,0 km/h (0 Bft) 0,00 %
18.12.2014 22:00 9,6 C 81 % 1017,3 hPa 0,6 l/m 5,8 km/h (2 Bft) W 0,00 h 0,000 mm 0,0 UV-I 0 W/m 6,5 C 9,6 C 7,9 km/h (2 Bft) 0,00 %
18.12.2014 23:00 9,9 C 80 % 1017,7 hPa 0,0 l/m 18,3 km/h (3 Bft) S-SW 0,00 h 0,000 mm 0,0 UV-I 0 W/m 6,6 C 3,7 C 24,1 km/h (4 Bft) 0,00 %
19.12.2014 00:00 10,1 C 81 % 1016,8 hPa 0,0 l/m 4,7 km/h (1 Bft) S 0,00 h 0,000 mm 0,0 UV-I 0 W/m 7,0 C 10,1 C 7,9 km/h (2 Bft) 0,00 %
19.12.2014 01:00 10,3 C 81 % 1016,8 hPa 0,0 l/m 2,1 km/h (1 Bft) S 0,00 h 0,000 mm 0,0 UV-I 0 W/m 7,2 C 10,3 C 4,0 km/h (1 Bft) 0,00 %
19.12.2014 02:00 10,6 C 79 % 1017,4 hPa 0,0 l/m 6,9 km/h (2 Bft) SW 0,00 h 0,000 mm 0,0 UV-I 0 W/m 7,1 C 10,3 C 11,9 km/h (2 Bft) 0,00 %
19.12.2014 03:00 11,2 C 71 % 1017,3 hPa 0,0 l/m 1,4 km/h (1 Bft) SW 0,00 h 0,000 mm 0,0 UV-I 0 W/m 6,1 C 11,2 C 4,0 km/h (1 Bft) 0,00 %
19.12.2014 04:00 11,1 C 69 % 1017,3 hPa 0,0 l/m 10,8 km/h (2 Bft) S 0,00 h 0,000 mm 0,0 UV-I 0 W/m 5,6 C 8,4 C 15,8 km/h (3 Bft) 0,00 %
19.12.2014 05:00 10,7 C 67 % 1017,4 hPa 0,0 l/m 18,3 km/h (3 Bft) W 0,00 h 0,000 mm 0,0 UV-I 0 W/m 4,8 C 4,7 C 28,0 km/h (4 Bft) 0,00 %
19.12.2014 06:00 10,2 C 68 % 1018,2 hPa 0,0 l/m 4,3 km/h (1 Bft) S 0,00 h 0,000 mm 0,0 UV-I 0 W/m 4,6 C 10,2 C 7,9 km/h (2 Bft) 0,00 %
19.12.2014 07:00 10,1 C 72 % 1018,6 hPa 0,0 l/m 4,7 km/h (1 Bft) W-SW 0,00 h 0,000 mm 0,0 UV-I 0 W/m 5,3 C 10,1 C 7,9 km/h (2 Bft) 0,00 %
19.12.2014 08:00 10,3 C 68 % 1018,6 hPa 0,0 l/m 2,1 km/h (1 Bft) N 0,00 h 0,000 mm 0,0 UV-I 0 W/m 4,7 C 10,3 C 4,0 km/h (1 Bft) 0,00 %
19.12.2014 09:00 9,9 C 72 % 1018,7 hPa 0,0 l/m 0,0 km/h (0 Bft) S 0,00 h 0,000 mm 0,0 UV-I 0 W/m 5,1 C 9,9 C 0,0 km/h (0 Bft) 0,00 %
19.12.2014 10:00 10,9 C 69 % 1018,5 hPa 0,0 l/m 4,3 km/h (1 Bft) S 0,00 h 0,000 mm 0,0 UV-I 0 W/m 5,4 C 10,9 C 7,9 km/h (2 Bft) 0,00 %
19.12.2014 11:00 11,6 C 65 % 1017,7 hPa 0,0 l/m 1,8 km/h (1 Bft) SW 0,00 h 0,000 mm 0,0 UV-I 0 W/m 5,2 C 11,6 C 4,0 km/h (1 Bft) 0,00 %
19.12.2014 12:00 11,9 C 64 % 1016,6 hPa 0,0 l/m 4,3 km/h (1 Bft) W 0,00 h 0,000 mm 0,0 UV-I 0 W/m 5,3 C 11,9 C 7,9 km/h (2 Bft) 0,00 %
19.12.2014 13:00 12,4 C 64 % 1015,4 hPa 0,0 l/m 1,4 km/h (1 Bft) N 0,00 h 0,000 mm 0,0 UV-I 0 W/m 5,8 C 12,4 C 4,0 km/h (1 Bft) 0,00 %
19.12.2014 14:00 13,7 C 59 % 1014,1 hPa 0,0 l/m 0,3 km/h (0 Bft) N 0,00 h 0,000 mm 0,0 UV-I 0 W/m 5,8 C 13,7 C 4,0 km/h (1 Bft) 0,00 %
19.12.2014 15:00 12,5 C 62 % 1014,3 hPa 0,0 l/m 0,0 km/h (0 Bft) N 0,00 h 0,000 mm 0,0 UV-I 0 W/m 5,4 C 12,5 C 0,0 km/h (0 Bft) 0,00 %
19.12.2014 16:00 10,0 C 72 % 1014,4 hPa 0,0 l/m 0,0 km/h (0 Bft) N 0,00 h 0,000 mm 0,0 UV-I 0 W/m 5,2 C 10,0 C 0,0 km/h (0 Bft) 0,00 %
19.12.2014 17:00 9,0 C 71 % 1014,5 hPa 0,0 l/m 0,0 km/h (0 Bft) N 0,00 h 0,000 mm 0,0 UV-I 0 W/m 4,0 C 9,0 C 0,0 km/h (0 Bft) 0,00 %
19.12.2014 18:00 7,8 C 74 % 1015,0 hPa 0,0 l/m 0,0 km/h (0 Bft) N 0,00 h 0,000 mm 0,0 UV-I 0 W/m 3,5 C 7,8 C 0,0 km/h (0 Bft) 0,00 %
19.12.2014 19:00 8,2 C 73 % 1015,0 hPa 0,0 l/m 0,0 km/h (0 Bft) N 0,00 h 0,000 mm 0,0 UV-I 0 W/m 3,7 C 8,2 C 0,0 km/h (0 Bft) 0,00 %
19.12.2014 20:00 9,1 C 66 % 1015,5 hPa 0,0 l/m 0,0 km/h (0 Bft) N 0,00 h 0,000 mm 0,0 UV-I 0 W/m 3,1 C 9,1 C 0,0 km/h (0 Bft) 0,00 %
19.12.2014 21:00 11,3 C 59 % 1015,2 hPa 0,0 l/m 0,3 km/h (0 Bft) NW 0,00 h 0,000 mm 0,0 UV-I 0 W/m 3,6 C 11,3 C 4,0 km/h (1 Bft) 0,00 %
19.12.2014 22:00 9,6 C 71 % 1016,5 hPa 0,0 l/m 4,3 km/h (1 Bft) S-SW 0,00 h 0,000 mm 0,0 UV-I 0 W/m 4,6 C 9,6 C 11,9 km/h (2 Bft) 0,00 %
19.12.2014 23:00 9,5 C 71 % 1017,3 hPa 0,9 l/m 9,7 km/h (2 Bft) SW 0,00 h 0,000 mm 0,0 UV-I 0 W/m 4,5 C 7,2 C 11,9 km/h (2 Bft) 0,00 %
20.12.2014 00:00 8,8 C 74 % 1018,1 hPa 0,0 l/m 9,0 km/h (2 Bft) S-SW 0,00 h 0,000 mm 0,0 UV-I 0 W/m 4,4 C 6,9 C 11,9 km/h (2 Bft) 0,00 %
20.12.2014 01:00 7,2 C 79 % 1019,1 hPa 2,7 l/m 5,8 km/h (2 Bft) N 0,00 h 0,000 mm 0,0 UV-I 0 W/m 3,8 C 7,2 C 11,9 km/h (2 Bft) 0,00 %
20.12.2014 02:00 7,0 C 81 % 1019,1 hPa 2,1 l/m 0,0 km/h (0 Bft) N 0,00 h 0,000 mm 0,0 UV-I 0 W/m 4,0 C 7,0 C 0,0 km/h (0 Bft) 0,00 %
20.12.2014 03:00 7,1 C 80 % 1019,1 hPa 0,3 l/m 0,3 km/h (0 Bft) N-NW 0,00 h 0,000 mm 0,0 UV-I 0 W/m 3,9 C 7,1 C 4,0 km/h (1 Bft) 0,00 %
20.12.2014 04:00 7,2 C 80 % 1020,2 hPa 0,0 l/m 1,8 km/h (1 Bft) N 0,00 h 0,000 mm 0,0 UV-I 0 W/m 4,0 C 7,2 C 4,0 km/h (1 Bft) 0,00 %
20.12.2014 05:00 5,6 C 81 % 1021,9 hPa 0,3 l/m 0,3 km/h (0 Bft) SW 0,00 h 0,000 mm 0,0 UV-I 0 W/m 2,6 C 5,6 C 4,0 km/h (1 Bft) 0,00 %
20.12.2014 06:00 4,9 C 78 % 1023,0 hPa 0,0 l/m 4,7 km/h (1 Bft) N 0,00 h 0,000 mm 0,0 UV-I 0 W/m 1,4 C 4,9 C 7,9 km/h (2 Bft) 0,00 %
20.12.2014 07:00 4,5 C 75 % 1023,5 hPa 0,0 l/m 0,0 km/h (0 Bft) N 0,00 h 0,000 mm 0,0 UV-I 0 W/m 0,5 C 4,5 C 0,0 km/h (0 Bft) 0,00 %
20.12.2014 08:00 4,7 C 78 % 1023,8 hPa 0,0 l/m 0,0 km/h (0 Bft) N 0,00 h 0,000 mm 0,0 UV-I 0 W/m 1,2 C 4,7 C 0,0 km/h (0 Bft) 0,00 %
20.12.2014 09:00 5,2 C 74 % 1023,7 hPa 0,0 l/m 0,0 km/h (0 Bft) N 0,00 h 0,000 mm 0,0 UV-I 0 W/m 1,0 C 5,2 C 0,0 km/h (0 Bft) 0,00 %
20.12.2014 10:00 5,5 C 73 % 1023,7 hPa 0,0 l/m 0,0 km/h (0 Bft) S-SW 0,00 h 0,000 mm 0,0 UV-I 0 W/m 1,1 C 5,5 C 0,0 km/h (0 Bft) 0,00 %
20.12.2014 11:00 6,0 C 74 % 1022,5 hPa 0,0 l/m 2,9 km/h (1 Bft) S-SW 0,00 h 0,000 mm 0,0 UV-I 0 W/m 1,7 C 6,0 C 4,0 km/h (1 Bft) 0,00 %
20.12.2014 12:00 7,7 C 64 % 1021,5 hPa 0,0 l/m 5,8 km/h (2 Bft) N 0,00 h 0,000 mm 0,0 UV-I 0 W/m 1,3 C 7,7 C 11,9 km/h (2 Bft) 0,00 %
20.12.2014 13:00 7,0 C 64 % 1020,3 hPa 0,0 l/m 0,6 km/h (0 Bft) N 0,00 h 0,000 mm 0,0 UV-I 0 W/m 0,7 C 7,0 C 4,0 km/h (1 Bft) 0,00 %
20.12.2014 14:00 7,4 C 65 % 1019,5 hPa 0,0 l/m 0,6 km/h (0 Bft) N 0,00 h 0,000 mm 0,0 UV-I 0 W/m 1,3 C 7,4 C 4,0 km/h (1 Bft) 0,00 %
20.12.2014 15:00 7,1 C 66 % 1019,5 hPa 0,0 l/m 0,3 km/h (0 Bft) W-NW 0,00 h 0,000 mm 0,0 UV-I 0 W/m 1,2 C 7,1 C 4,0 km/h (1 Bft) 0,00 %
20.12.2014 16:00 6,3 C 65 % 1019,7 hPa 0,0 l/m 7,2 km/h (2 Bft) N 0,00 h 0,000 mm 0,0 UV-I 0 W/m 0,2 C 5,6 C 11,9 km/h (2 Bft) 0,00 %
20.12.2014 17:00 5,3 C 62 % 1019,8 hPa 0,0 l/m 0,6 km/h (0 Bft) S-SW 0,00 h 0,000 mm 0,0 UV-I 0 W/m -1,4 C 5,3 C 4,0 km/h (1 Bft) 0,00 %
20.12.2014 18:00 5,4 C 59 % 1019,4 hPa 0,0 l/m 6,9 km/h (2 Bft) NW 0,00 h 0,000 mm 0,0 UV-I 0 W/m -2,0 C 5,0 C 11,9 km/h (2 Bft) 0,00 %
20.12.2014 19:00 5,2 C 62 % 1019,8 hPa 0,0 l/m 1,4 km/h (1 Bft) S-SW 0,00 h 0,000 mm 0,0 UV-I 0 W/m -1,5 C 5,2 C 4,0 km/h (1 Bft) 0,00 %
20.12.2014 20:00 5,4 C 61 % 1020,1 hPa 0,0 l/m 14,3 km/h (3 Bft) SW 0,00 h 0,000 mm 0,0 UV-I 0 W/m -1,5 C -0,1 C 24,1 km/h (4 Bft) 0,00 %
20.12.2014 21:00 5,5 C 59 % 1020,5 hPa 0,0 l/m 4,7 km/h (1 Bft) W-SW 0,00 h 0,000 mm 0,0 UV-I 0 W/m -1,9 C 5,5 C 7,9 km/h (2 Bft) 0,00 %
20.12.2014 22:00 3,8 C 73 % 1021,9 hPa 0,3 l/m 4,7 km/h (1 Bft) W 0,00 h 0,000 mm 0,0 UV-I 0 W/m -0,6 C 3,8 C 7,9 km/h (2 Bft) 0,00 %
20.12.2014 23:00 4,3 C 69 % 1022,1 hPa 0,0 l/m 19,1 km/h (3 Bft) W-SW 0,00 h 0,000 mm 0,0 UV-I 0 W/m -0,9 C -3,7 C 39,9 km/h (6 Bft) 0,00 %
21.12.2014 00:00 4,5 C 66 % 1023,0 hPa 0,0 l/m 11,6 km/h (2 Bft) W-SW 0,00 h 0,000 mm 0,0 UV-I 0 W/m -1,3 C 0,4 C 15,8 km/h (3 Bft) 0,00 %
21.12.2014 01:00 4,3 C 70 % 1023,0 hPa 0,3 l/m 14,8 km/h (3 Bft) W-SW 0,00 h 0,000 mm 0,0 UV-I 0 W/m -0,7 C -1,7 C 19,8 km/h (3 Bft) 0,00 %
21.12.2014 02:00 2,4 C 78 % 1024,8 hPa 0,9 l/m 5,5 km/h (1 Bft) W-SW 0,00 h 0,000 mm 0,0 UV-I 0 W/m -1,0 C 2,4 C 7,9 km/h (2 Bft) 0,00 %
21.12.2014 03:00 2,2 C 78 % 1025,9 hPa 0,6 l/m 6,4 km/h (2 Bft) W-SW 0,00 h 0,000 mm 0,0 UV-I 0 W/m -1,2 C 2,2 C 11,9 km/h (2 Bft) 0,00 %
21.12.2014 04:00 2,8 C 78 % 1026,5 hPa 0,0 l/m 16,9 km/h (3 Bft) W-SW 0,00 h 0,000 mm 0,0 UV-I 0 W/m -0,6 C -4,6 C 24,1 km/h (4 Bft) 0,00 %
21.12.2014 05:00 3,3 C 72 % 1027,2 hPa 0,0 l/m 14,0 km/h (3 Bft) W-SW 0,00 h 0,000 mm 0,0 UV-I 0 W/m -1,3 C -2,4 C 19,8 km/h (3 Bft) 0,00 %
21.12.2014 06:00 3,2 C 72 % 1028,6 hPa 0,0 l/m 24,8 km/h (4 Bft) W-SW 0,00 h 0,000 mm 0,0 UV-I 0 W/m -1,3 C -7,3 C 32,0 km/h (5 Bft) 0,00 %
21.12.2014 07:00 2,5 C 72 % 1029,7 hPa 0,0 l/m 9,7 km/h (2 Bft) W-SW 0,00 h 0,000 mm 0,0 UV-I 0 W/m -2,0 C -0,5 C 11,9 km/h (2 Bft) 0,00 %
21.12.2014 08:00 3,0 C 72 % 1030,8 hPa 0,0 l/m 3,2 km/h (1 Bft) N 0,00 h 0,000 mm 0,0 UV-I 0 W/m -1,5 C 3,0 C 7,9 km/h (2 Bft) 0,00 %
21.12.2014 09:00 3,6 C 71 % 1031,0 hPa 0,0 l/m 0,6 km/h (0 Bft) W-SW 0,00 h 0,000 mm 0,0 UV-I 0 W/m -1,2 C 3,6 C 4,0 km/h (1 Bft) 0,00 %
21.12.2014 10:00 4,5 C 66 % 1031,6 hPa 0,0 l/m 4,0 km/h (1 Bft) W-SW 0,00 h 0,000 mm 0,0 UV-I 0 W/m -1,3 C 4,5 C 7,9 km/h (2 Bft) 0,00 %
21.12.2014 11:00 4,7 C 65 % 1031,1 hPa 0,0 l/m 2,9 km/h (1 Bft) N 0,00 h 0,000 mm 0,0 UV-I 0 W/m -1,3 C 4,7 C 7,9 km/h (2 Bft) 0,00 %
21.12.2014 12:00 5,1 C 64 % 1030,7 hPa 0,0 l/m 0,0 km/h (0 Bft) N 0,00 h 0,000 mm 0,0 UV-I 0 W/m -1,1 C 5,1 C 0,0 km/h (0 Bft) 0,00 %
21.12.2014 13:00 5,5 C 63 % 1030,4 hPa 0,0 l/m 0,0 km/h (0 Bft) W-SW 0,00 h 0,000 mm 0,0 UV-I 0 W/m -1,0 C 5,5 C 0,0 km/h (0 Bft) 0,00 %
21.12.2014 14:00 5,5 C 64 % 1029,9 hPa 0,0 l/m 5,5 km/h (1 Bft) W-SW 0,00 h 0,000 mm 0,0 UV-I 0 W/m -0,8 C 5,5 C 7,9 km/h (2 Bft) 0,00 %
21.12.2014 15:00 5,1 C 64 % 1030,0 hPa 0,0 l/m 5,5 km/h (1 Bft) W-SW 0,00 h 0,000 mm 0,0 UV-I 0 W/m -1,1 C 5,1 C 7,9 km/h (2 Bft) 0,00 %
21.12.2014 16:00 4,7 C 66 % 1030,1 hPa 0,0 l/m 4,0 km/h (1 Bft) N 0,00 h 0,000 mm 0,0 UV-I 0 W/m -1,1 C 4,7 C 7,9 km/h (2 Bft) 0,00 %
21.12.2014 17:00 3,9 C 69 % 1030,6 hPa 0,0 l/m 0,3 km/h (0 Bft) N 0,00 h 0,000 mm 0,0 UV-I 0 W/m -1,3 C 3,9 C 4,0 km/h (1 Bft) 0,00 %
21.12.2014 18:00 3,7 C 70 % 1030,7 hPa 0,0 l/m 0,0 km/h (0 Bft) N 0,00 h 0,000 mm 0,0 UV-I 0 W/m -1,3 C 3,7 C 0,0 km/h (0 Bft) 0,00 %
21.12.2014 19:00 3,0 C 73 % 1030,8 hPa 0,0 l/m 0,6 km/h (0 Bft) N 0,00 h 0,000 mm 0,0 UV-I 0 W/m -1,4 C 3,0 C 4,0 km/h (1 Bft) 0,00 %
21.12.2014 20:00 3,3 C 70 % 1030,7 hPa 0,0 l/m 0,3 km/h (0 Bft) W-SW 0,00 h 0,000 mm 0,0 UV-I 0 W/m -1,6 C 3,3 C 4,0 km/h (1 Bft) 0,00 %
21.12.2014 21:00 2,9 C 69 % 1030,1 hPa 0,0 l/m 1,4 km/h (1 Bft) N 0,00 h 0,000 mm 0,0 UV-I 0 W/m -2,2 C 2,9 C 4,0 km/h (1 Bft) 0,00 %
21.12.2014 22:00 2,9 C 68 % 1029,7 hPa 0,0 l/m 0,3 km/h (0 Bft) N 0,00 h 0,000 mm 0,0 UV-I 0 W/m -2,4 C 2,9 C 4,0 km/h (1 Bft) 0,00 %
21.12.2014 23:00 2,9 C 70 % 1029,7 hPa 0,0 l/m 0,0 km/h (0 Bft) N 0,00 h 0,000 mm 0,0 UV-I 0 W/m -2,0 C 2,9 C 0,0 km/h (0 Bft) 0,00 %
Min-Datum _ 15.12.14 19.12.14 16.12.14 - 15.12.14 - - - - - 15.12.14 21.12.14 15.12.14 15.12.14
_ Min-Zeit 08:00 14:00 15:00 - 00:00 - - - - - 08:00 06:00 00:00 00:00
Minimum _ -0,2 C 59 % 1008,3 hPa - 0,0 km/h (0 Bft) - - - - - -2,7 C -7,3 C 0,0 km/h (0 Bft) 0,00 %
Max-Datum _ 19.12.14 16.12.14 21.12.14 20.12.14 21.12.14 - 17.12.14 15.12.14 15.12.14 17.12.14 19.12.14 19.12.14 20.12.14 15.12.14
_ Max-Zeit 14:00 10:00 10:00 01:00 06:00 - 10:00 00:00 10:00 13:00 01:00 14:00 23:00 00:00
Maximum _ 13,7 C 87 % 1031,6 hPa 2,7 l/m 24,8 km/h
W-SW (4 Bft)
- 1,00 h 0,000 mm 1,0 UV-I 234 W/m 7,2 C 13,7 C 39,9 km/h
W-SW (6 Bft)
0,00 %
Durchschnitt _ 5,2 C 77 % 1017,7 hPa #18,9 l/m 2,3 km/h (1 Bft) W-SW #6:00 h #0,000 mm 1,0 UV-I 69 W/m 1,4 C 4,8 C 4,3 km/h (1 Bft) 0,00 %